Theta_e
308 308 309 309 309 309 310 311 310 310 310 309 309 308 306 304 303 304 307 309 311 311 312 318 319 328 325 325 325 322 328 328 329 329 328 325 327 324 323 324 322 323 322 322 322
306 306 306 307 308 308 308 309 309 310 310 311 311 309 308 307 306 310 309 310 310 310 311 324 328 326 325 325 326 327 327 327 326 326 327 325 327 326 326 325 325 322 321 323 321
308 308 307 306 305 307 307 308 308 309 309 311 311 310 309 306 308 305 310 312 310 309 310 316 324 324 325 324 326 326 330 328 326 326 327 327 327 327 326 325 324 323 324 321 319
307 308 308 307 307 306 303 305 308 308 309 309 309 309 309 307 303 312 313 320 321 316 310 315 322 324 324 326 325 328 326 328 325 325 327 328 327 328 327 327 326 325 322 320 319
306 307 307 307 307 307 307 306 304 305 307 307 308 308 310 309 305 309 317 307 311 318 313 314 316 323 326 325 325 326 326 326 326 324 325 327 328 328 327 327 326 324 320 321 320
305 306 306 306 306 307 307 307 307 306 304 306 308 309 309 312 308 306 304 305 305 314 317 314 314 315 316 315 320 322 325 325 324 324 326 327 326 326 326 326 323 322 320 320 320
305 305 305 306 305 307 307 307 307 306 307 306 306 308 308 310 309 307 305 306 307 307 314 317 316 315 314 316 314 315 316 315 316 318 319 321 322 323 324 323 322 321 320 320 320
304 304 304 305 306 306 306 306 306 306 307 308 306 307 308 308 308 309 309 309 308 307 306 312 318 315 314 314 315 316 315 317 316 318 317 319 320 320 321 320 322 321 320 318 319
304 304 304 304 305 306 304 305 303 306 308 307 306 305 306 307 309 309 309 309 309 309 306 307 314 314 313 315 315 314 315 314 313 315 317 319 319 319 320 320 321 321 320 319 319
304 304 304 304 304 304 304 304 304 307 306 306 306 306 306 306 309 308 308 309 307 305 306 306 312 314 311 313 314 314 315 314 313 316 315 315 317 318 319 319 320 320 320 320 318
304 304 304 304 304 304 304 303 304 305 307 305 305 306 306 308 309 310 308 309 307 306 305 307 310 316 314 314 313 313 314 314 316 318 318 317 318 320 320 319 319 319 319 319 317
304 304 304 304 303 303 304 300 305 303 305 305 306 307 307 308 308 309 307 308 307 308 307 309 310 311 315 315 315 316 315 316 317 319 320 319 319 319 319 319 319 320 320 320 319
303 304 304 303 303 304 302 302 303 304 304 307 307 307 307 308 309 309 310 309 308 307 307 308 310 311 316 317 319 319 318 317 318 319 319 319 319 319 320 319 320 321 320 320 319
303 304 304 304 303 303 303 302 304 304 307 308 309 308 308 307 310 308 310 310 310 308 307 307 309 311 314 318 319 319 319 320 321 318 318 319 322 319 320 321 321 320 318 319 321
303 304 304 303 303 303 303 303 304 304 306 304 310 309 309 308 309 309 308 310 313 310 307 308 308 309 312 316 319 318 318 321 319 317 317 318 321 320 319 321 321 320 319 317 320
304 304 305 303 303 303 303 303 303 309 309 307 306 306 306 311 311 311 308 308 312 311 309 309 311 309 311 313 317 316 316 316 317 316 320 319 321 321 321 321 321 320 321 321 322
302 302 303 303 303 303 303 302 307 308 306 307 307 306 306 307 310 312 313 308 311 315 313 310 310 311 311 312 313 314 313 314 316 319 321 319 321 320 320 320 321 321 319 321 322
301 301 302 303 303 303 303 304 307 305 305 307 306 305 306 307 306 308 312 313 309 311 314 314 312 311 312 311 312 313 313 315 317 321 323 320 324 322 320 321 320 320 320 321 322
301 301 302 303 303 303 305 304 303 307 305 307 305 306 307 305 306 307 308 314 313 312 312 314 315 313 313 312 313 312 314 313 316 320 322 322 321 320 321 321 321 321 323 322 322
301 300 301 304 303 304 305 302 304 304 304 304 307 306 306 305 307 307 308 312 312 311 312 312 314 314 313 313 312 312 313 314 314 321 325 323 324 323 323 323 325 325 323 322 321
300 298 302 304 304 304 300 302 304 303 304 304 307 306 305 306 308 306 307 310 311 309 311 313 312 314 313 313 312 310 314 312 312 316 321 323 323 319 322 322 324 324 322 322 322
298 296 301 305 306 304 301 304 305 304 304 304 305 306 306 307 308 307 306 308 309 310 309 311 312 314 314 312 313 312 310 311 316 316 316 319 321 319 321 320 322 323 322 321 321
300 298 301 301 305 302 304 305 305 305 305 305 306 305 304 305 307 307 308 310 307 310 309 313 314 315 314 315 313 313 312 312 313 312 317 317 318 318 319 320 322 322 322 321 321
297 298 297 301 300 304 304 303 304 304 305 304 303 303 303 304 304 305 307 307 307 307 310 311 311 316 316 315 313 314 313 312 310 312 316 318 318 321 322 321 321 323 322 321 322
294 295 301 303 300 301 302 302 305 307 306 305 305 304 306 307 308 308 309 310 309 308 311 310 310 314 314 316 317 315 314 314 313 313 314 318 320 320 320 321 322 322 321 322 322
294 302 301 300 300 301 300 304 305 305 307 307 307 307 306 306 307 309 309 311 311 310 312 311 310 311 312 315 317 318 314 314 314 313 313 315 315 317 319 321 325 324 323 324 323
300 301 301 302 301 300 298 303 304 303 304 306 307 307 306 305 306 307 307 307 309 310 311 312 310 309 311 311 315 318 317 315 314 314 314 316 316 318 322 323 324 324 324 324 324
Wind_Speed
17 18 18 19 19 17 18 19 21 21 21 21 22 22 21 22 22 18 10 21 13 17 12 5 7 5 10 3 3 4 2 5 6 7 7 3 2 0 1 4 3 5 5 5 4
19 19 20 19 20 20 20 20 19 20 20 20 21 22 22 22 20 13 36 28 26 18 11 14 7 8 3 5 4 5 5 10 8 7 7 5 2 3 4 8 11 6 6 8 16
18 18 20 20 20 21 21 21 21 20 19 19 20 20 21 18 5 10 13 12 23 29 20 16 14 8 5 4 6 7 10 15 7 9 3 6 9 3 3 8 8 8 15 3 9
20 20 20 21 22 22 22 21 20 20 19 19 20 20 21 4 8 2 13 14 2 15 21 14 6 8 8 9 7 4 11 18 12 5 3 8 5 13 10 18 15 14 9 5 10
20 20 20 21 22 22 22 22 22 21 20 18 17 15 10 3 9 13 10 17 14 11 14 9 8 8 8 6 5 8 12 8 9 10 7 13 13 15 15 22 14 11 8 11 13
22 22 21 21 21 20 22 23 24 24 22 18 16 12 6 15 13 23 27 23 14 7 5 9 9 8 4 7 7 6 9 9 4 10 12 16 20 4 12 17 13 11 12 11 13
25 25 25 25 24 24 24 24 25 27 23 19 14 13 14 26 15 10 13 17 3 13 8 20 10 8 6 2 5 4 4 8 10 11 7 14 20 10 18 13 12 16 13 11 14
25 26 28 27 26 26 26 26 28 27 25 20 12 12 10 14 20 25 31 36 32 14 8 15 17 4 4 1 4 1 2 4 5 5 7 9 17 10 19 11 16 15 12 10 13
25 25 27 27 26 27 29 31 33 22 16 11 7 8 12 13 10 27 34 17 15 24 20 7 8 6 3 6 2 1 9 7 7 8 5 9 16 17 7 7 13 16 12 10 14
24 26 27 26 27 28 30 34 13 7 10 8 6 2 8 4 13 8 11 31 8 8 6 7 5 6 5 6 14 7 6 6 12 1 4 12 15 19 17 10 16 12 14 12 12
24 26 27 26 25 24 29 13 3 2 0 5 7 7 14 13 15 8 6 14 7 5 9 7 7 19 27 20 9 15 9 10 14 2 3 8 9 18 12 7 11 11 11 12 12
25 26 25 25 25 27 14 1 3 4 9 10 17 22 34 24 11 13 19 7 9 15 10 6 27 20 12 18 19 9 14 21 16 6 4 11 13 17 15 12 11 13 14 11 4
26 26 26 25 26 6 7 7 8 14 4 9 10 8 11 15 15 17 8 6 7 12 24 26 18 13 18 15 15 19 20 18 17 5 5 6 10 16 13 7 7 10 11 9 9
26 25 26 26 9 11 10 3 19 9 4 7 4 6 5 7 9 29 9 7 6 18 16 19 22 18 17 24 19 22 17 14 14 3 5 4 6 12 12 11 7 10 8 8 0
26 25 24 18 16 6 6 16 18 2 4 2 3 6 3 7 6 6 33 9 9 10 10 12 18 28 23 21 19 12 10 12 9 5 1 3 4 7 5 9 11 10 9 6 4
25 25 23 17 9 14 16 16 1 1 8 4 3 10 5 5 10 6 11 15 6 8 11 9 6 20 23 13 19 5 6 4 2 3 4 10 7 6 5 9 8 7 4 4 6
26 25 22 13 4 5 9 2 2 4 6 3 7 13 11 15 6 2 7 19 13 10 10 5 10 1 8 8 8 10 9 1 3 1 5 7 8 15 9 9 12 12 7 5 8
31 23 13 5 7 6 3 2 6 4 7 11 9 10 9 14 12 14 6 5 20 4 8 8 4 12 8 9 10 17 12 7 7 4 4 7 8 7 18 22 9 6 3 8 9
27 13 5 8 2 9 2 3 3 4 5 10 8 5 5 10 7 10 6 6 5 12 5 9 10 5 19 9 17 6 15 9 4 2 1 4 5 7 7 8 7 7 6 9 9
19 6 7 9 8 6 1 4 3 3 8 8 2 4 5 10 8 10 7 12 10 12 5 5 2 12 15 12 17 14 11 7 4 7 5 4 3 5 7 9 6 6 9 7 7
5 3 6 5 1 2 1 4 4 8 9 4 2 3 6 9 6 3 4 16 17 19 8 3 1 4 11 18 14 5 9 3 6 5 5 1 6 7 8 7 9 8 8 9 12
6 3 12 1 1 1 2 3 6 6 6 5 4 6 8 10 5 5 5 5 14 18 10 4 2 5 15 7 18 20 9 9 9 7 3 3 6 4 7 7 8 8 8 7 8
3 2 3 8 2 2 4 6 4 4 4 3 4 5 5 7 5 9 3 3 8 11 11 9 4 2 4 3 4 22 13 12 5 5 15 4 5 2 3 6 5 7 9 9 10
3 4 4 2 1 4 6 4 5 5 7 4 4 4 3 9 7 6 9 4 4 13 15 9 4 4 6 2 5 17 19 17 7 5 7 20 5 5 7 7 6 7 7 8 10
3 2 2 4 4 9 5 4 7 7 3 7 4 1 5 4 6 6 3 7 5 1 3 6 4 3 10 13 9 1 18 20 20 13 6 5 15 6 10 11 9 7 9 10 11
2 3 2 3 7 8 3 3 5 4 3 5 3 8 8 5 5 12 6 2 4 7 3 6 4 6 5 12 9 10 7 20 24 20 13 6 9 8 7 6 6 12 12 12 13
3 2 1 5 5 3 3 4 6 13 7 8 6 10 10 10 4 8 7 11 11 7 4 2 4 5 4 10 8 8 21 11 10 15 15 15 15 5 4 7 9 9 14 16 15
Wind_Direction
344 339 338 334 330 323 317 318 324 327 330 331 335 336 333 329 306 302 253 249 264 230 219 204 155 165 179 225 151 119 104 249 237 174 244 229 347 47 185 237 251 217 238 252 268
348 342 337 332 333 330 327 324 321 321 322 326 328 330 333 333 320 263 260 263 254 241 200 159 154 161 183 196 200 163 170 227 201 191 235 182 174 342 340 317 287 257 281 281 181
349 344 345 339 330 328 329 327 325 321 319 318 321 325 331 337 319 250 278 234 238 237 216 186 161 150 197 169 203 195 211 232 274 238 345 293 287 207 268 281 250 283 293 219 184
345 342 341 338 337 335 328 323 321 318 316 315 320 327 330 335 238 75 114 45 331 204 187 169 151 160 189 207 203 188 235 238 249 254 256 257 322 298 261 259 275 279 256 193 204
342 340 338 335 332 327 325 322 319 317 316 314 314 323 340 263 241 223 237 299 349 151 179 167 158 165 181 195 198 227 238 240 264 287 256 273 262 255 285 283 282 269 260 226 209
340 338 335 329 326 323 319 315 316 320 313 309 310 307 271 252 255 257 270 288 281 238 205 185 187 182 195 205 180 222 225 248 261 273 273 278 270 260 258 276 288 289 257 238 213
338 337 335 333 330 327 322 318 312 308 303 296 294 290 256 243 248 244 278 275 264 246 205 218 235 171 166 288 220 230 266 269 231 236 246 269 277 249 267 271 263 270 261 242 226
335 335 334 332 329 326 324 314 308 299 290 280 277 280 255 278 272 266 254 265 264 260 252 237 228 257 188 246 359 300 161 262 190 223 241 187 277 264 266 257 262 261 262 245 243
331 332 330 330 327 325 325 318 316 310 286 257 236 232 273 277 255 254 246 230 259 242 239 267 190 194 138 172 347 325 258 256 298 211 212 186 279 267 269 252 272 272 271 257 259
330 330 329 328 327 327 327 324 341 64 77 128 215 266 261 223 305 252 244 208 201 149 151 189 203 179 182 163 212 196 246 229 246 319 173 269 266 272 272 250 257 269 268 266 251
330 330 329 327 326 328 328 341 18 5 290 205 196 247 281 299 339 299 175 160 211 152 172 179 194 214 206 208 198 225 225 238 253 197 232 251 271 275 278 253 260 261 266 256 241
331 332 330 329 328 323 315 279 36 12 298 245 243 235 248 263 289 289 159 146 189 195 148 161 219 215 187 202 209 199 228 245 275 230 226 271 273 283 286 267 253 266 274 265 221
330 331 332 332 327 341 341 284 340 345 257 277 227 236 234 215 227 250 242 165 178 183 193 201 220 189 196 200 197 216 217 233 245 358 257 299 289 286 284 261 280 261 247 266 229
328 329 332 333 337 341 297 236 333 332 302 267 215 245 206 207 236 236 230 184 188 198 192 230 227 192 195 209 190 219 209 240 251 162 244 113 289 292 302 287 247 280 293 285 241
323 324 326 328 294 291 287 314 328 134 310 243 174 163 247 194 314 249 207 228 201 176 170 211 191 205 205 202 190 231 185 208 226 212 306 248 273 270 309 289 285 284 288 279 141
323 321 322 323 274 263 288 310 192 129 245 273 71 341 340 252 261 291 174 229 194 200 236 204 205 200 211 201 200 178 94 71 72 130 252 238 198 251 217 227 268 271 292 109 127
332 322 312 279 262 193 320 350 147 211 318 32 347 347 337 349 343 337 238 193 196 187 207 171 224 209 155 146 166 165 125 286 310 242 222 203 194 245 261 238 232 253 250 170 139
332 326 320 279 270 245 247 89 215 248 248 359 340 330 319 15 335 353 336 188 224 249 182 190 189 192 178 185 168 182 172 161 189 203 243 192 210 245 219 233 231 241 217 151 146
334 331 338 346 259 171 164 197 231 355 9 344 339 1 331 13 342 346 332 356 26 238 255 192 228 168 175 174 164 190 210 162 131 228 133 227 265 299 222 218 231 223 169 175 152
330 330 338 347 144 161 116 258 274 7 336 338 356 331 340 341 320 351 322 32 2 356 348 268 232 214 198 176 196 185 138 172 205 195 227 287 251 219 200 215 196 203 199 156 132
340 28 12 81 169 41 176 258 293 290 335 293 323 316 308 305 331 337 287 310 352 354 337 308 171 271 148 202 173 148 178 141 160 152 171 180 259 216 200 199 211 220 184 159 166
346 27 350 267 360 2 293 289 311 289 301 264 252 228 264 293 314 320 261 257 339 336 343 302 309 249 207 172 194 199 180 165 195 192 173 168 262 250 226 215 203 199 161 157 150
335 283 344 61 31 320 292 280 260 289 309 305 307 326 312 310 321 321 35 129 292 332 347 340 305 170 349 168 208 201 199 189 86 106 207 161 248 334 264 221 229 184 156 150 148
2 350 331 37 258 335 336 288 316 291 310 297 276 275 292 283 258 275 289 303 253 300 313 320 269 256 211 245 122 200 201 190 148 157 177 221 241 252 282 242 204 164 156 145 157
25 291 257 328 331 322 304 290 310 340 329 327 314 302 350 294 319 272 355 342 263 323 341 324 279 291 280 272 297 39 204 208 212 212 174 207 207 217 223 222 208 160 134 143 160
67 348 322 278 309 324 319 264 301 311 286 291 238 305 299 250 256 286 308 260 250 135 131 326 282 337 299 281 279 271 256 216 210 217 232 227 246 212 256 96 164 166 161 170 182
316 280 266 286 315 325 262 330 305 318 286 227 279 300 298 290 282 275 275 266 251 292 163 164 316 351 292 336 315 259 238 231 231 216 200 209 225 172 208 205 200 184 177 183 184